Time,TemperatureF,DewpointF,PressureIn,WindDirection,WindDirectionDegrees,WindSpeedMPH,WindSpeedGustMPH,Humidity,HourlyPrecipIn,Conditions,Clouds,dailyrainin,SoftwareType,DateUTC
2013-05-13 00:03:00,66.2,51.4,29.77,NNE,22,2.7,-999.0,59,-99.99,,,0.00,Acu-Link.com,2013-05-13 04:03:00,
2013-05-13 00:18:00,65.7,50.0,29.77,NNE,22,2.2,-999.0,57,-99.99,,,0.00,Acu-Link.com,2013-05-13 04:18:00,
2013-05-13 00:33:00,65.5,48.4,29.78,SE,135,3.2,-999.0,54,-99.99,,,0.00,Acu-Link.com,2013-05-13 04:33:00,
2013-05-13 00:48:00,64.9,48.3,29.79,NE,45,2.7,-999.0,55,-99.99,,,0.00,Acu-Link.com,2013-05-13 04:48:00,
2013-05-13 01:03:00,64.2,47.7,29.79,NW,315,2.2,-999.0,55,-99.99,,,0.00,Acu-Link.com,2013-05-13 05:03:00,
2013-05-13 01:18:00,63.5,48.0,29.79,NNE,22,4.2,-999.0,57,-99.99,,,0.00,Acu-Link.com,2013-05-13 05:18:00,
2013-05-13 01:33:00,62.8,46.9,29.78,WNW,292,2.2,-999.0,56,-99.99,,,0.00,Acu-Link.com,2013-05-13 05:33:00,
2013-05-13 01:49:00,62.4,46.0,29.78,NE,45,2.2,-999.0,55,-99.99,,,0.00,Acu-Link.com,2013-05-13 05:49:00,
2013-05-13 02:04:00,62.2,46.3,29.78,WSW,247,2.7,-999.0,56,-99.99,,,0.00,Acu-Link.com,2013-05-13 06:04:00,
2013-05-13 02:19:00,61.7,46.3,29.78,NE,45,2.2,-999.0,57,-99.99,,,0.00,Acu-Link.com,2013-05-13 06:19:00,
2013-05-13 02:34:00,61.2,46.3,29.77,NE,45,4.7,-999.0,58,-99.99,,,0.00,Acu-Link.com,2013-05-13 06:34:00,
2013-05-13 02:49:00,60.8,45.9,29.77,South,180,2.7,-999.0,58,-99.99,,,0.00,Acu-Link.com,2013-05-13 06:49:00,
2013-05-13 03:04:00,60.4,46.0,29.78,NNE,22,2.7,-999.0,59,-99.99,,,0.00,Acu-Link.com,2013-05-13 07:04:00,
2013-05-13 03:19:00,60.1,45.3,29.78,NE,45,2.2,-999.0,58,-99.99,,,0.00,Acu-Link.com,2013-05-13 07:19:00,
2013-05-13 03:34:00,59.7,45.3,29.78,East,90,2.2,-999.0,59,-99.99,,,0.00,Acu-Link.com,2013-05-13 07:34:00,
2013-05-13 03:49:00,59.7,45.3,29.78,NNW,337,2.7,-999.0,59,-99.99,,,0.00,Acu-Link.com,2013-05-13 07:49:00,
2013-05-13 04:04:00,59.7,45.8,29.78,NNE,22,3.2,-999.0,60,-99.99,,,0.00,Acu-Link.com,2013-05-13 08:04:00,
2013-05-13 04:20:00,59.7,45.8,29.78,ESE,112,2.7,-999.0,60,-99.99,,,0.00,Acu-Link.com,2013-05-13 08:20:00,
2013-05-13 04:35:00,59.7,45.8,29.78,NE,45,2.7,-999.0,60,-99.99,,,0.00,Acu-Link.com,2013-05-13 08:35:00,
2013-05-13 04:50:00,59.2,46.2,29.78,ENE,67,2.2,-999.0,62,-99.99,,,0.00,Acu-Link.com,2013-05-13 08:50:00,
2013-05-13 05:05:00,59.0,46.0,29.79,NNW,337,1.7,-999.0,62,-99.99,,,0.00,Acu-Link.com,2013-05-13 09:05:00,
2013-05-13 05:20:00,58.5,45.9,29.79,WNW,292,2.7,-999.0,63,-99.99,,,0.00,Acu-Link.com,2013-05-13 09:20:00,
2013-05-13 05:35:00,58.1,46.0,29.80,NNE,22,1.7,-999.0,64,-99.99,,,0.00,Acu-Link.com,2013-05-13 09:35:00,
2013-05-13 05:51:00,57.7,46.0,29.81,NNE,22,3.7,-999.0,65,-99.99,,,0.00,Acu-Link.com,2013-05-13 09:51:00,
2013-05-13 06:06:00,57.4,46.5,29.80,NNE,22,4.2,-999.0,67,-99.99,,,0.00,Acu-Link.com,2013-05-13 10:06:00,
2013-05-13 06:21:00,57.6,47.5,29.81,NNE,22,1.1,-999.0,69,-99.99,,,0.00,Acu-Link.com,2013-05-13 10:21:00,
2013-05-13 06:36:00,57.7,48.4,29.82,NNW,337,2.2,-999.0,71,-99.99,,,0.00,Acu-Link.com,2013-05-13 10:36:00,
2013-05-13 06:51:00,58.3,49.3,29.82,ESE,112,2.2,-999.0,72,-99.99,,,0.00,Acu-Link.com,2013-05-13 10:51:00,
2013-05-13 07:06:00,58.8,50.2,29.83,North,0,2.7,-999.0,73,-99.99,,,0.00,Acu-Link.com,2013-05-13 11:06:00,
2013-05-13 07:21:00,61.7,52.2,29.83,North,0,3.2,-999.0,71,-99.99,,,0.00,Acu-Link.com,2013-05-13 11:21:00,
2013-05-13 07:36:00,63.3,52.6,29.83,ENE,67,2.7,-999.0,68,-99.99,,,0.00,Acu-Link.com,2013-05-13 11:36:00,
2013-05-13 07:51:00,63.9,52.7,29.82,NNW,337,2.2,-999.0,67,-99.99,,,0.00,Acu-Link.com,2013-05-13 11:51:00,
2013-05-13 08:07:00,63.9,53.1,29.84,East,90,3.2,-999.0,68,-99.99,,,0.00,Acu-Link.com,2013-05-13 12:07:00,
2013-05-13 08:22:00,65.8,53.7,29.83,East,90,7.8,-999.0,65,-99.99,,,0.00,Acu-Link.com,2013-05-13 12:22:00,
2013-05-13 08:37:00,66.4,53.4,29.84,NW,315,3.7,-999.0,63,-99.99,,,0.00,Acu-Link.com,2013-05-13 12:37:00,
2013-05-13 08:52:00,66.4,53.0,29.83,North,0,3.7,-999.0,62,-99.99,,,0.00,Acu-Link.com,2013-05-13 12:52:00,
2013-05-13 09:07:00,66.2,52.3,29.84,NNE,22,9.4,-999.0,61,-99.99,,,0.00,Acu-Link.com,2013-05-13 13:07:00,
2013-05-13 09:22:00,66.4,51.2,29.83,ESE,112,4.7,-999.0,58,-99.99,,,0.00,Acu-Link.com,2013-05-13 13:22:00,
2013-05-13 09:37:00,67.6,50.9,29.84,North,0,6.3,-999.0,55,-99.99,,,0.00,Acu-Link.com,2013-05-13 13:37:00,
2013-05-13 09:52:00,66.6,50.4,29.83,East,90,6.3,-999.0,56,-99.99,,,0.00,Acu-Link.com,2013-05-13 13:52:00,
2013-05-13 10:07:00,66.6,49.4,29.84,ESE,112,2.7,-999.0,54,-99.99,,,0.00,Acu-Link.com,2013-05-13 14:07:00,
2013-05-13 10:23:00,66.6,48.9,29.84,NNE,22,4.2,-999.0,53,-99.99,,,0.00,Acu-Link.com,2013-05-13 14:23:00,
2013-05-13 10:38:00,66.9,48.7,29.85,ENE,67,5.8,-999.0,52,-99.99,,,0.00,Acu-Link.com,2013-05-13 14:38:00,
2013-05-13 10:53:00,66.9,49.2,29.86,East,90,5.8,-999.0,53,-99.99,,,0.00,Acu-Link.com,2013-05-13 14:53:00,
2013-05-13 11:08:00,66.7,48.5,29.85,NNE,22,6.3,-999.0,52,-99.99,,,0.00,Acu-Link.com,2013-05-13 15:08:00,
2013-05-13 11:23:00,67.1,48.4,29.85,SE,135,3.2,-999.0,51,-99.99,,,0.00,Acu-Link.com,2013-05-13 15:23:00,
2013-05-13 11:38:00,66.9,48.7,29.86,NE,45,2.7,-999.0,52,-99.99,,,0.00,Acu-Link.com,2013-05-13 15:38:00,
2013-05-13 11:53:00,67.1,48.4,29.86,West,270,3.7,-999.0,51,-99.99,,,0.00,Acu-Link.com,2013-05-13 15:53:00,
2013-05-13 12:08:00,67.3,48.5,29.85,East,90,5.8,-999.0,51,-99.99,,,0.00,Acu-Link.com,2013-05-13 16:08:00,
2013-05-13 12:24:00,67.5,48.2,29.86,ESE,112,7.3,-999.0,50,-99.99,,,0.00,Acu-Link.com,2013-05-13 16:24:00,
2013-05-13 12:39:00,67.6,47.8,29.85,ESE,112,4.2,-999.0,49,-99.99,,,0.00,Acu-Link.com,2013-05-13 16:39:00,
2013-05-13 12:54:00,71.1,49.3,29.85,East,90,6.3,-999.0,46,-99.99,,,0.00,Acu-Link.com,2013-05-13 16:54:00,
2013-05-13 13:09:00,69.1,49.7,29.85,ESE,112,4.2,-999.0,50,-99.99,,,0.00,Acu-Link.com,2013-05-13 17:09:00,
2013-05-13 13:24:00,69.3,49.9,29.84,NW,315,5.8,-999.0,50,-99.99,,,0.00,Acu-Link.com,2013-05-13 17:24:00,
2013-05-13 13:39:00,71.2,50.5,29.84,SE,135,2.7,-999.0,48,-99.99,,,0.00,Acu-Link.com,2013-05-13 17:39:00,
2013-05-13 13:54:00,73.4,51.3,29.84,ENE,67,3.2,-999.0,46,-99.99,,,0.00,Acu-Link.com,2013-05-13 17:54:00,
2013-05-13 14:10:00,72.3,49.8,29.83,North,0,3.7,-999.0,45,-99.99,,,0.00,Acu-Link.com,2013-05-13 18:10:00,
2013-05-13 14:25:00,72.9,50.3,29.82,North,0,5.3,-999.0,45,-99.99,,,0.00,Acu-Link.com,2013-05-13 18:25:00,
2013-05-13 14:40:00,73.0,47.9,29.83,ESE,112,2.2,-999.0,41,-99.99,,,0.00,Acu-Link.com,2013-05-13 18:40:00,
2013-05-13 14:55:00,73.8,48.6,29.82,ESE,112,5.8,-999.0,41,-99.99,,,0.00,Acu-Link.com,2013-05-13 18:55:00,
2013-05-13 15:10:00,73.0,47.9,29.81,ENE,67,4.7,-999.0,41,-99.99,,,0.00,Acu-Link.com,2013-05-13 19:10:00,
2013-05-13 15:25:00,71.8,46.2,29.81,WNW,292,3.2,-999.0,40,-99.99,,,0.00,Acu-Link.com,2013-05-13 19:25:00,
2013-05-13 15:40:00,74.1,47.5,29.80,ESE,112,2.2,-999.0,39,-99.99,,,0.00,Acu-Link.com,2013-05-13 19:40:00,
2013-05-13 15:55:00,71.8,46.8,29.80,NNW,337,3.7,-999.0,41,-99.99,,,0.00,Acu-Link.com,2013-05-13 19:55:00,
2013-05-13 16:10:00,74.7,47.4,29.79,East,90,3.7,-999.0,38,-99.99,,,0.00,Acu-Link.com,2013-05-13 20:10:00,
2013-05-13 16:26:00,73.6,45.7,29.79,NNE,22,4.2,-999.0,37,-99.99,,,0.00,Acu-Link.com,2013-05-13 20:26:00,
2013-05-13 16:41:00,72.5,44.7,29.79,ENE,67,3.7,-999.0,37,-99.99,,,0.00,Acu-Link.com,2013-05-13 20:41:00,
2013-05-13 16:56:00,72.0,42.8,29.79,SW,225,2.7,-999.0,35,-99.99,,,0.00,Acu-Link.com,2013-05-13 20:56:00,
2013-05-13 17:11:00,71.2,42.1,29.79,NE,45,5.3,-999.0,35,-99.99,,,0.00,Acu-Link.com,2013-05-13 21:11:00,
2013-05-13 17:26:00,71.2,42.1,29.78,ENE,67,1.7,-999.0,35,-99.99,,,0.00,Acu-Link.com,2013-05-13 21:26:00,
2013-05-13 17:41:00,75.7,42.9,29.78,NE,45,2.7,-999.0,31,-99.99,,,0.00,Acu-Link.com,2013-05-13 21:41:00,
2013-05-13 17:56:00,73.8,42.9,29.78,NNE,22,2.2,-999.0,33,-99.99,,,0.00,Acu-Link.com,2013-05-13 21:56:00,
2013-05-13 18:11:00,72.1,41.4,29.78,ENE,67,2.2,-999.0,33,-99.99,,,0.00,Acu-Link.com,2013-05-13 22:11:00,
2013-05-13 18:26:00,70.9,41.1,29.79,SSW,202,1.1,-999.0,34,-99.99,,,0.00,Acu-Link.com,2013-05-13 22:26:00,
2013-05-13 18:42:00,70.0,39.6,29.79,West,270,2.2,-999.0,33,-99.99,,,0.00,Acu-Link.com,2013-05-13 22:42:00,
2013-05-13 18:57:00,68.4,38.9,29.80,ESE,112,3.2,-999.0,34,-99.99,,,0.00,Acu-Link.com,2013-05-13 22:57:00,
2013-05-13 19:12:00,66.9,39.1,29.81,North,0,1.7,-999.0,36,-99.99,,,0.00,Acu-Link.com,2013-05-13 23:12:00,
2013-05-13 19:27:00,66.6,38.8,29.81,ENE,67,1.7,-999.0,36,-99.99,,,0.00,Acu-Link.com,2013-05-13 23:27:00,
2013-05-13 19:42:00,65.8,39.5,29.82,NNE,22,1.7,-999.0,38,-99.99,,,0.00,Acu-Link.com,2013-05-13 23:42:00,
2013-05-13 19:57:00,64.9,39.3,29.83,NE,45,1.7,-999.0,39,-99.99,,,0.00,Acu-Link.com,2013-05-13 23:57:00,
2013-05-13 20:12:00,63.5,39.4,29.84,ESE,112,2.7,-999.0,41,-99.99,,,0.00,Acu-Link.com,2013-05-14 00:12:00,
2013-05-13 20:27:00,62.6,39.2,29.85,NNE,22,1.7,-999.0,42,-99.99,,,0.00,Acu-Link.com,2013-05-14 00:27:00,
2013-05-13 20:42:00,61.9,39.2,29.86,NE,45,2.2,-999.0,43,-99.99,,,0.00,Acu-Link.com,2013-05-14 00:42:00,
2013-05-13 20:57:00,61.2,38.5,29.87,NW,315,2.7,-999.0,43,-99.99,,,0.00,Acu-Link.com,2013-05-14 00:57:00,
2013-05-13 21:13:00,60.6,39.1,29.88,NNE,22,1.1,-999.0,45,-99.99,,,0.00,Acu-Link.com,2013-05-14 01:13:00,
2013-05-13 21:28:00,59.7,39.4,29.89,NNE,22,0.0,-999.0,47,-99.99,,,0.00,Acu-Link.com,2013-05-14 01:28:00,
2013-05-13 21:43:00,59.2,40.6,29.90,North,0,0.0,-999.0,50,-99.99,,,0.00,Acu-Link.com,2013-05-14 01:43:00,
2013-05-13 21:58:00,58.5,40.4,29.91,NNW,337,0.0,-999.0,51,-99.99,,,0.00,Acu-Link.com,2013-05-14 01:58:00,
2013-05-13 22:13:00,57.7,40.7,29.91,NNW,337,0.0,-999.0,53,-99.99,,,0.00,Acu-Link.com,2013-05-14 02:13:00,
2013-05-13 22:28:00,57.6,41.6,29.91,WSW,247,0.0,-999.0,55,-99.99,,,0.00,Acu-Link.com,2013-05-14 02:28:00,
2013-05-13 22:43:00,56.8,42.2,29.92,WSW,247,0.0,-999.0,58,-99.99,,,0.00,Acu-Link.com,2013-05-14 02:43:00,
2013-05-13 22:58:00,55.9,42.6,29.92,WSW,247,0.0,-999.0,61,-99.99,,,0.00,Acu-Link.com,2013-05-14 02:58:00,
2013-05-13 23:13:00,55.4,43.4,29.92,WNW,292,0.0,-999.0,64,-99.99,,,0.00,Acu-Link.com,2013-05-14 03:13:00,
2013-05-13 23:29:00,55.2,46.3,29.93,WNW,292,0.0,-999.0,72,-99.99,,,0.00,Acu-Link.com,2013-05-14 03:29:00,
2013-05-13 23:44:00,54.5,45.7,29.93,North,0,0.0,-999.0,72,-99.99,,,0.00,Acu-Link.com,2013-05-14 03:44:00,
2013-05-13 23:59:00,54.1,46.4,29.94,ESE,112,0.0,-999.0,75,-99.99,,,0.00,Acu-Link.com,2013-05-14 03:59:00,